When you browse on this site, cookies collect data to enhance your experience and personalize the content and advertising you see.
Visit our Privacy Policy to learn more. By continuing to use the site, you agree to this use of cookies and data.
  • In United Kingdom
  • List of Countries
  • For 7 days
  • Water Temperature
  • Satellite Maps
  • Weather Map
  • Weather Widgets
  • user-avatar
    Login

    Hourly Weather Sinemorec

    Today, 21 May, Tuesday

    Time Temperature Precipitation Wind Pressure Humidity
    00:00 +20°C° 0 mm 5 mps 756 mmHg 58%
    01:00 +19°C° 0 mm 4 mps 756 mmHg 63%
    02:00 +18°C° 0 mm 2 mps 756 mmHg 68%
    03:00 +17°C° 0 mm 2 mps 756 mmHg 71%
    04:00 +17°C° 0 mm 2 mps 756 mmHg 75%
    05:00 +16°C° 0 mm 2 mps 756 mmHg 78%
    06:00 +19°C° 0 mm 3 mps 756 mmHg 72%
    07:00 +21°C° 0 mm 3 mps 756 mmHg 66%
    08:00 +24°C° 0 mm 3 mps 757 mmHg 59%
    09:00 +26°C° 0 mm 3 mps 756 mmHg 54%
    10:00 +27°C° 0 mm 4 mps 756 mmHg 49%
    11:00 +28°C° 0 mm 4 mps 756 mmHg 44%
    12:00 +28°C° 0 mm 4 mps 756 mmHg 45%
    13:00 +29°C° 0 mm 5 mps 756 mmHg 45%
    14:00 +29°C° 0 mm 5 mps 755 mmHg 45%
    15:00 +28°C° 0 mm 5 mps 755 mmHg 46%
    16:00 +28°C° 0 mm 5 mps 755 mmHg 47%
    17:00 +27°C° 0 mm 5 mps 755 mmHg 48%
    18:00 +25°C° 0 mm 5 mps 755 mmHg 50%
    19:00 +22°C° 0 mm 5 mps 756 mmHg 52%
    20:00 +21°C° 0 mm 5 mps 756 mmHg 54%
    21:00 +20°C° 0 mm 5 mps 756 mmHg 55%
    22:00 +20°C° 0 mm 5 mps 757 mmHg 56%
    23:00 +19°C° 0 mm 5 mps 757 mmHg 57%

    Tomorrow, 22 May, Wednesday

    Time Temperature Precipitation Wind Pressure Humidity
    00:00 +18°C° 0 mm 4 mps 757 mmHg 61%
    01:00 +17°C° 0 mm 4 mps 757 mmHg 65%
    02:00 +16°C° 0 mm 3 mps 757 mmHg 69%
    03:00 +16°C° 0 mm 3 mps 757 mmHg 71%
    04:00 +16°C° 0 mm 2 mps 757 mmHg 72%
    05:00 +15°C° 0 mm 2 mps 757 mmHg 74%
    06:00 +18°C° 0 mm 2 mps 758 mmHg 69%
    07:00 +21°C° 0 mm 1 mps 758 mmHg 64%
    08:00 +23°C° 0 mm 1 mps 758 mmHg 60%
    09:00 +25°C° 0 mm 1 mps 758 mmHg 56%
    10:00 +27°C° 0 mm 1 mps 758 mmHg 52%
    11:00 +28°C° 0 mm 2 mps 758 mmHg 47%
    12:00 +28°C° 0 mm 2 mps 758 mmHg 46%
    13:00 +28°C° 0 mm 3 mps 758 mmHg 45%
    14:00 +28°C° 0 mm 3 mps 758 mmHg 44%
    15:00 +27°C° 0 mm 3 mps 757 mmHg 49%
    16:00 +26°C° 0 mm 3 mps 757 mmHg 53%
    17:00 +26°C° 0 mm 3 mps 757 mmHg 58%
    18:00 +24°C° 0 mm 3 mps 757 mmHg 64%
    19:00 +21°C° 0 mm 2 mps 757 mmHg 70%
    20:00 +20°C° 0 mm 2 mps 757 mmHg 75%
    21:00 +19°C° 0 mm 2 mps 757 mmHg 74%
    22:00 +19°C° 0 mm 2 mps 757 mmHg 74%
    23:00 +19°C° 0 mm 2 mps 758 mmHg 73%

    Day after tomorrow, 23 May, Thursday

    Time Temperature Precipitation Wind Pressure Humidity
    00:00 +18°C° 0 mm 2 mps 757 mmHg 70%
    01:00 +18°C° 0 mm 2 mps 757 mmHg 68%
    02:00 +17°C° 0 mm 2 mps 757 mmHg 65%
    03:00 +17°C° 0 mm 2 mps 757 mmHg 66%
    04:00 +16°C° 0 mm 2 mps 757 mmHg 67%
    05:00 +16°C° 0 mm 1 mps 757 mmHg 68%
    06:00 +19°C° 0 mm 1 mps 757 mmHg 64%
    07:00 +21°C° 0 mm 1 mps 757 mmHg 60%
    08:00 +23°C° 0 mm 1 mps 757 mmHg 56%
    09:00 +25°C° 0 mm 1 mps 757 mmHg 53%
    10:00 +27°C° 0 mm 1 mps 757 mmHg 49%
    11:00 +29°C° 0 mm 1 mps 757 mmHg 46%
    12:00 +29°C° 0 mm 2 mps 757 mmHg 46%
    13:00 +28°C° 0 mm 2 mps 756 mmHg 46%
    14:00 +28°C° 0 mm 3 mps 756 mmHg 46%
    15:00 +27°C° 0 mm 3 mps 756 mmHg 50%
    16:00 +26°C° 0 mm 3 mps 755 mmHg 54%
    17:00 +25°C° 0 mm 3 mps 755 mmHg 58%
    18:00 +23°C° 0 mm 2 mps 755 mmHg 65%
    19:00 +21°C° 0 mm 1 mps 755 mmHg 71%
    20:00 +17°C° 0 mm 0 mps 755 mmHg 78%
    21:00 +17°C° 0 mm 0 mps 755 mmHg 77%
    22:00 +17°C° 0 mm 0 mps 755 mmHg 77%
    23:00 +16°C° 0 mm 0 mps 755 mmHg 77%

    24 May, Friday

    Time Temperature Precipitation Wind Pressure Humidity
    00:00 +18°C° 0 mm 1 mps 755 mmHg 78%
    01:00 +18°C° 0 mm 1 mps 755 mmHg 78%
    02:00 +18°C° 0 mm 1 mps 755 mmHg 79%
    03:00 +17°C° 0 mm 2 mps 754 mmHg 82%
    04:00 +16°C° 0 mm 2 mps 754 mmHg 85%
    05:00 +16°C° 0 mm 3 mps 754 mmHg 89%
    06:00 +17°C° 0 mm 3 mps 754 mmHg 88%
    07:00 +18°C° 0 mm 3 mps 754 mmHg 87%
    08:00 +18°C° 0 mm 3 mps 754 mmHg 87%
    09:00 +20°C° 0 mm 4 mps 754 mmHg 79%
    10:00 +21°C° 0 mm 4 mps 754 mmHg 71%
    11:00 +23°C° 0 mm 4 mps 754 mmHg 63%
    12:00 +23°C° 0 mm 4 mps 754 mmHg 63%
    13:00 +23°C° 0 mm 4 mps 754 mmHg 62%
    14:00 +23°C° 0 mm 4 mps 753 mmHg 62%
    15:00 +23°C° 0 mm 4 mps 753 mmHg 64%
    16:00 +22°C° 0 mm 3 mps 753 mmHg 66%
    17:00 +21°C° 0 mm 2 mps 753 mmHg 68%
    18:00 +20°C° 0 mm 2 mps 753 mmHg 74%
    19:00 +20°C° 0 mm 1 mps 753 mmHg 81%
    20:00 +16°C° 0 mm 0 mps 753 mmHg 87%
    21:00 +16°C° 0.2 mm 0 mps 753 mmHg 88%
    22:00 +18°C° 0.2 mm 1 mps 753 mmHg 90%
    23:00 +16°C° 0.2 mm 1 mps 753 mmHg 91%

    25 May, Saturday

    Time Temperature Precipitation Wind Pressure Humidity
    00:00 +16°C° 1.8 mm 2 mps 753 mmHg 92%
    01:00 +17°C° 1.8 mm 2 mps 753 mmHg 94%
    02:00 +17°C° 1.8 mm 2 mps 753 mmHg 95%
    03:00 +16°C° 0.1 mm 3 mps 753 mmHg 95%
    04:00 +16°C° 0.1 mm 3 mps 754 mmHg 94%
    05:00 +16°C° 0.1 mm 3 mps 754 mmHg 94%
    06:00 +17°C° 0 mm 3 mps 754 mmHg 89%
    07:00 +18°C° 0 mm 3 mps 755 mmHg 83%
    08:00 +19°C° 0 mm 3 mps 755 mmHg 77%
    09:00 +20°C° 0.1 mm 3 mps 755 mmHg 75%
    10:00 +21°C° 0.1 mm 2 mps 755 mmHg 72%
    11:00 +23°C° 0.1 mm 2 mps 756 mmHg 69%
    12:00 +23°C° 0.5 mm 2 mps 756 mmHg 71%
    13:00 +24°C° 0.5 mm 1 mps 756 mmHg 73%
    14:00 +24°C° 0.5 mm 1 mps 756 mmHg 75%
    15:00 +24°C° 0.2 mm 1 mps 756 mmHg 73%
    16:00 +24°C° 0.2 mm 1 mps 756 mmHg 70%
    17:00 +24°C° 0.2 mm 2 mps 756 mmHg 67%
    18:00 +23°C° 0 mm 2 mps 756 mmHg 72%
    19:00 +20°C° 0 mm 2 mps 756 mmHg 78%
    20:00 +18°C° 0 mm 2 mps 757 mmHg 83%
    21:00 +18°C° 0 mm 2 mps 757 mmHg 83%
    22:00 +18°C° 0 mm 2 mps 757 mmHg 83%
    23:00 +17°C° 0 mm 2 mps 757 mmHg 83%

    26 May, Sunday

    Time Temperature Precipitation Wind Pressure Humidity
    00:00 +17°C° 0 mm 2 mps 757 mmHg 82%
    01:00 +17°C° 0 mm 2 mps 757 mmHg 82%
    02:00 +17°C° 0 mm 2 mps 757 mmHg 82%
    03:00 +17°C° 0 mm 2 mps 758 mmHg 82%
    04:00 +17°C° 0 mm 2 mps 758 mmHg 82%
    05:00 +18°C° 0 mm 1 mps 758 mmHg 82%
    06:00 +20°C° 0 mm 1 mps 758 mmHg 77%
    07:00 +22°C° 0 mm 1 mps 758 mmHg 72%
    08:00 +24°C° 0 mm 1 mps 759 mmHg 67%
    09:00 +25°C° 0 mm 1 mps 758 mmHg 61%
    10:00 +26°C° 0 mm 2 mps 758 mmHg 56%
    11:00 +28°C° 0 mm 3 mps 758 mmHg 50%
    12:00 +28°C° 0 mm 3 mps 758 mmHg 49%
    13:00 +28°C° 0 mm 3 mps 758 mmHg 49%
    14:00 +28°C° 0 mm 4 mps 758 mmHg 48%
    15:00 +28°C° 0 mm 4 mps 757 mmHg 52%
    16:00 +28°C° 0 mm 4 mps 757 mmHg 56%
    17:00 +27°C° 0 mm 4 mps 757 mmHg 60%
    18:00 +25°C° 0 mm 4 mps 757 mmHg 67%
    19:00 +22°C° 0 mm 4 mps 757 mmHg 74%
    20:00 +20°C° 0 mm 4 mps 757 mmHg 80%
    21:00 +20°C° 0 mm 3 mps 757 mmHg 81%
    22:00 +19°C° 0 mm 3 mps 757 mmHg 81%
    23:00 +19°C° 0 mm 3 mps 757 mmHg 81%
    Show more